Location: Mount Cross
(36.6390°N, 79.4878°W)
Time: 00:32:02
(UTC+00:00)

Vanguard 2 Rocket - Pass Details

Date: 22 March 2023
Orbit: 554 x 3314 km, 32.9° (Epoch: 08 June)

Event Time Altitude Azimuth Distance (km) Brightness Sun altitude
Rises 02:13:45 0° 251° (WSW) 4,069 10.8 -32.3°
Reaches altitude 10° 02:16:02 10° 248° (WSW) 3,369 10.2 -32.7°
Maximum altitude 02:24:56 70° 167° (SSE) 2,050 8.3 -34.2°
Enters shadow 02:26:27 65° 129° (SE) 2,214 8.4 -34.5°
